RH
31 34 35 37 36 34 25 13 10 11 12 12 7 7 24 66 100 74 26 16 18 8 4 5 2 -1 7 30 47 45 40 37 31 31 33 29 26 25 26 30 32 29 29 29 25 23 23 24 27 31 32 34 37 38 40 42 38 32 36 43 37 28 27 27 23 21 22 23 26 25 23 24 23 26 26 20 20 18 17 27 26 25 36 35 47 77 79
34 34 33 31 28 29 22 12 12 11 11 12 4 10 47 88 97 69 35 25 18 7 13 24 23 22 37 56 59 48 42 41 38 35 34 34 32 29 28 30 30 28 28 28 27 25 25 25 29 37 40 39 39 37 36 39 38 37 42 46 41 35 36 33 30 32 32 26 28 31 28 25 33 46 47 38 34 27 22 28 29 33 37 31 52 87 82
36 33 31 26 21 24 20 12 13 11 10 11 4 16 62 96 93 73 48 27 13 14 34 54 59 59 63 67 64 57 49 43 41 40 39 39 36 34 36 34 32 33 31 28 28 28 28 27 28 37 44 43 38 34 36 39 37 39 49 51 46 44 43 40 42 51 54 47 47 52 48 40 44 54 56 52 47 36 31 35 37 46 48 41 59 82 79
37 32 29 25 20 22 20 12 13 12 10 9 6 21 63 93 94 81 57 30 26 45 65 70 68 66 65 65 64 61 54 48 46 44 43 44 43 40 40 38 38 41 40 37 37 34 31 30 27 29 41 50 46 35 38 46 45 43 45 46 48 51 48 47 51 57 62 61 60 60 58 56 55 56 60 62 55 44 39 39 42 48 54 61 65 62 67
38 30 27 27 23 23 19 14 13 12 9 8 8 22 60 92 95 79 59 45 49 71 84 78 70 69 67 64 62 59 54 52 53 50 43 43 47 44 40 39 40 42 42 42 43 38 35 35 31 29 42 56 53 40 36 44 50 49 45 43 50 57 55 52 56 61 63 63 61 58 58 60 60 63 68 66 58 51 46 45 50 49 50 67 72 55 55
37 28 27 27 26 23 17 15 14 10 9 9 7 26 66 96 96 79 66 64 62 65 75 76 72 72 68 65 65 62 58 55 54 55 47 41 45 45 40 41 42 42 41 39 39 38 37 39 39 43 55 62 56 47 43 46 49 50 51 52 55 62 65 60 60 65 67 63 59 57 59 59 59 67 75 71 63 58 53 52 57 54 49 59 67 57 50
39 30 26 24 24 22 17 16 15 9 10 8 8 38 78 96 96 87 80 81 71 63 71 76 74 74 71 70 70 67 65 64 59 57 51 46 47 45 39 40 41 39 39 36 37 40 39 41 48 58 67 67 59 53 51 53 56 57 63 66 64 66 72 69 64 65 67 64 59 61 63 59 58 67 74 76 74 68 62 60 58 55 54 55 55 52 49
42 33 24 19 20 20 18 18 14 9 10 7 18 58 88 92 93 90 82 83 78 72 77 77 75 76 71 70 75 72 71 70 64 60 57 53 55 49 42 45 44 41 42 41 42 45 43 43 52 63 70 66 58 55 53 54 62 67 70 71 68 68 77 79 70 66 66 62 62 70 73 65 67 74 73 76 84 82 75 72 65 58 57 58 54 49 47
47 35 23 16 17 20 19 16 11 10 9 7 30 74 92 87 89 86 79 81 78 76 78 74 74 77 69 65 71 70 67 64 58 57 57 57 60 54 47 51 51 46 48 50 53 55 51 46 48 56 63 60 54 55 55 53 62 71 71 69 66 65 73 78 72 70 73 71 72 80 78 71 75 80 75 78 87 87 82 83 82 71 60 62 67 62 53
50 34 20 17 17 18 18 12 10 11 7 10 42 83 93 86 86 83 79 76 69 68 72 68 68 72 67 62 63 59 58 58 52 48 50 55 58 55 52 55 53 49 53 58 60 61 58 52 49 51 56 55 52 54 55 53 59 69 74 73 67 63 67 71 68 71 77 76 75 77 75 76 84 84 82 88 94 89 85 89 95 88 74 73 80 78 70
46 27 17 17 17 16 14 11 11 10 6 18 56 87 91 85 81 78 78 70 59 61 67 64 63 66 65 63 61 53 51 53 50 45 47 55 59 56 56 58 54 52 57 60 60 59 55 48 47 51 52 52 52 52 53 52 54 63 73 74 70 66 68 71 68 67 71 72 70 73 79 88 95 93 90 97 101 94 86 87 95 99 92 87 87 86 84
31 19 17 18 17 15 13 11 12 9 7 26 64 86 87 82 76 74 74 66 55 56 62 63 62 63 61 60 58 53 48 48 50 47 48 57 60 57 56 57 57 56 57 58 57 57 54 48 49 53 49 45 47 47 51 57 59 63 68 68 70 69 67 70 69 65 70 73 70 78 92 98 98 99 97 98 101 98 90 89 94 99 100 97 95 96 96
19 18 19 18 15 13 13 14 15 11 8 28 65 85 85 81 75 68 65 61 56 55 57 59 60 59 59 58 56 53 46 46 52 51 49 53 55 56 56 54 56 60 60 56 53 53 56 58 60 59 52 48 47 47 53 63 68 69 65 62 68 71 66 67 69 66 69 74 74 83 98 101 98 100 101 98 100 100 97 97 98 98 99 100 100 100 98
21 22 18 16 15 12 14 20 23 14 7 29 69 87 84 78 73 66 61 60 58 54 51 54 55 55 58 59 57 54 48 49 53 50 48 47 46 52 60 56 54 57 53 48 50 54 58 62 61 59 58 57 55 52 55 61 66 71 70 65 68 74 73 71 72 70 69 77 87 94 99 101 100 99 99 98 100 99 96 96 97 96 96 99 101 99 94
25 21 16 17 14 11 17 32 35 18 9 37 76 85 77 74 73 68 63 61 59 52 50 53 51 46 49 52 51 49 48 50 51 48 51 50 45 51 59 54 50 50 44 45 59 67 64 62 60 58 61 64 64 63 62 60 62 68 73 73 73 78 81 77 74 76 74 79 94 101 98 99 100 98 98 99 100 100 96 95 97 96 96 98 99 98 96
24 19 17 16 13 11 21 43 48 25 15 44 76 78 72 73 72 66 61 59 56 50 50 54 49 41 44 48 45 45 50 53 50 50 56 56 52 54 56 51 52 53 46 51 69 75 66 62 62 64 69 71 70 69 67 64 67 74 78 79 76 78 84 81 77 80 80 80 90 97 98 99 98 96 99 100 99 100 98 97 98 98 98 98 96 97 99
21 19 16 14 13 11 22 48 57 33 20 42 65 71 74 74 68 63 62 60 56 51 49 50 46 44 50 55 52 51 56 58 52 51 56 56 53 55 54 52 58 60 57 63 76 75 66 64 65 67 72 72 70 72 73 72 76 83 85 84 81 82 87 85 79 80 81 84 93 98 98 100 99 98 100 101 99 100 100 98 98 98 97 95 93 95 100
21 18 15 16 16 12 20 45 55 37 27 42 59 66 72 72 65 61 62 60 56 54 50 41 40 50 58 60 57 54 55 56 54 54 56 54 51 54 55 55 59 63 66 74 80 74 68 68 69 67 70 72 71 75 80 78 77 82 88 88 85 86 90 88 84 82 81 84 93 99 100 100 100 99 100 100 99 100 100 98 97 97 97 96 94 96 99
21 19 23 29 26 19 22 38 47 41 37 45 54 56 59 65 65 61 58 56 50 48 47 40 40 50 57 56 54 51 52 58 60 58 57 55 53 55 57 57 62 66 69 73 77 75 71 72 73 71 71 73 74 77 85 87 80 79 88 91 85 84 91 93 90 90 87 84 90 97 99 99 100 100 100 100 100 99 99 96 95 97 100 99 99 99 99
23 29 40 45 40 35 34 37 42 43 38 40 48 51 49 56 63 61 56 54 48 43 43 43 40 39 43 50 54 52 52 59 62 59 58 59 58 58 58 60 64 69 72 74 75 75 73 74 75 74 74 74 75 81 92 97 90 85 89 91 84 85 95 99 97 97 94 88 89 94 97 99 100 100 98 98 96 95 95 94 95 98 100 99 99 100 99
31 44 54 57 56 53 50 48 48 47 42 40 45 46 42 47 60 62 56 53 50 42 36 35 31 25 27 40 53 55 52 56 62 62 60 60 59 59 60 62 64 69 73 76 76 74 74 75 75 78 81 80 80 87 93 96 95 92 89 86 84 88 93 96 97 96 91 88 92 97 98 100 100 98 96 95 94 93 95 97 98 99 100 100 100 100 99
41 58 64 67 67 63 62 60 58 55 47 40 38 35 34 45 60 61 54 48 46 41 35 34 36 34 28 31 41 48 51 56 64 66 64 62 60 60 61 60 63 70 73 75 77 74 71 72 75 81 87 87 88 94 93 88 87 85 79 78 84 90 89 86 88 90 87 89 97 100 99 100 100 99 98 97 97 98 99 99 100 99 98 99 99 98 98
53 70 71 70 70 68 67 63 56 48 37 30 28 25 32 53 66 61 53 46 42 44 48 48 48 47 42 38 38 41 47 56 63 65 66 62 57 59 63 62 65 70 70 70 73 72 71 76 81 84 88 90 91 91 88 85 84 81 77 82 90 93 87 79 80 86 88 92 98 100 99 100 100 100 100 99 100 101 100 99 100 99 97 98 98 97 96
63 75 73 73 72 65 55 44 36 30 24 23 22 21 36 64 69 54 46 44 42 48 57 54 48 48 49 49 47 46 48 56 61 62 64 61 56 59 66 66 67 70 67 66 74 77 77 81 83 81 84 89 86 80 78 82 84 78 76 84 91 91 86 80 79 84 89 95 100 100 99 100 100 99 100 99 99 100 100 99 100 100 99 99 99 98 97
67 77 75 74 64 46 32 27 23 22 24 25 21 22 40 59 57 46 46 50 50 51 52 49 47 47 47 49 51 52 54 58 58 53 49 48 50 60 69 69 67 68 67 67 73 75 73 74 75 75 80 85 86 85 85 89 89 81 76 79 82 83 84 81 77 81 89 96 100 99 99 101 101 99 100 101 99 100 101 100 100 101 100 99 99 100 99
62 72 68 60 46 31 27 28 26 28 33 31 23 25 39 50 54 57 59 55 49 46 45 46 48 49 47 47 49 51 53 53 50 45 42 43 47 56 66 68 64 63 65 67 67 65 65 69 72 74 78 82 85 89 92 92 91 85 81 82 80 79 81 79 74 79 90 96 96 91 90 95 100 98 97 99 99 99 98 97 98 99 98 97 99 100 100
48 53 48 40 33 29 29 29 29 34 38 33 27 32 46 59 67 67 58 47 41 42 44 47 48 47 47 47 47 47 48 48 47 48 54 62 64 62 62 65 64 62 62 62 61 59 61 67 71 74 79 80 80 85 89 88 86 86 88 87 77 68 71 75 73 78 88 94 95 88 76 79 89 91 87 91 95 94 93 94 95 96 98 99 100 100 100
37 35 30 25 24 26 28 28 30 35 36 31 31 40 55 66 67 58 50 48 46 45 47 48 46 44 43 42 43 42 39 39 43 48 55 66 69 65 60 58 59 60 58 58 59 59 61 66 70 75 78 74 75 84 86 82 85 94 100 97 84 72 72 72 70 75 85 91 95 85 64 59 73 78 74 77 83 82 82 86 90 92 95 98 100 100 100
24 21 19 18 18 21 24 26 29 34 34 30 33 43 54 59 58 55 57 57 51 48 49 47 44 45 47 48 53 56 53 51 52 54 57 61 64 64 61 57 56 57 58 59 61 62 64 66 68 72 72 66 67 76 79 78 88 99 100 97 93 87 83 73 59 58 70 81 82 68 45 39 52 59 59 68 78 79 80 86 91 95 98 99 98 97 96
17 16 16 17 18 20 23 26 31 35 34 31 40 52 56 54 54 58 60 56 50 50 50 42 41 50 58 60 62 64 65 64 60 57 55 54 52 52 50 48 49 51 51 53 58 61 63 64 64 68 69 61 56 64 73 82 96 103 96 90 86 82 80 76 58 43 44 53 56 46 32 28 35 42 47 57 66 70 71 73 76 79 79 75 70 66 65
16 16 17 18 19 22 25 28 30 33 34 38 50 60 59 56 56 58 57 54 53 54 49 40 40 47 55 58 56 51 52 55 57 57 55 49 43 39 34 32 37 40 41 47 53 57 61 63 63 68 70 59 49 54 65 77 94 102 93 83 79 71 67 69 66 52 43 40 37 34 35 37 37 37 38 40 42 45 47 47 47 48 47 44 41 40 40
16 16 19 22 22 24 28 30 31 33 37 41 45 49 55 57 56 56 56 53 48 43 36 33 37 45 53 59 59 55 52 48 43 44 46 43 38 35 30 26 27 29 32 37 43 50 58 60 59 64 66 53 43 55 71 81 93 100 93 84 84 79 70 71 77 76 69 58 42 34 41 47 44 39 37 36 35 34 32 29 29 31 33 35 35 35 35
16 17 20 24 25 25 25 28 30 33 38 38 36 39 51 57 55 54 52 45 40 39 33 27 31 42 49 54 56 57 59 52 38 32 35 36 33 32 31 28 25 25 27 29 32 39 49 50 47 54 61 50 42 62 90 98 95 95 95 93 94 92 89 90 92 90 87 76 56 44 47 48 41 38 39 40 40 37 32 29 31 33 33 34 35 34 32
16 16 20 26 30 26 23 30 41 46 48 44 38 40 51 55 51 49 46 42 46 50 39 26 27 35 41 46 50 53 59 56 40 27 28 31 30 29 28 27 25 24 24 24 24 29 37 37 36 45 57 52 45 61 88 96 87 84 89 94 94 94 95 96 95 92 90 81 69 63 59 52 48 54 60 61 63 65 64 66 70 66 55 48 46 42 37
16 17 21 28 30 25 28 47 66 70 64 54 41 37 46 52 50 46 44 44 48 49 39 29 31 37 42 47 48 47 50 49 40 32 34 37 38 37 35 34 36 37 34 32 33 36 37 37 38 48 56 54 51 61 77 84 82 82 86 89 90 90 92 92 91 89 85 80 80 81 74 66 70 82 87 86 89 91 89 90 92 88 77 69 64 58 53
17 19 23 28 30 28 35 54 70 73 69 59 43 31 37 47 49 45 42 40 39 38 35 30 30 36 43 46 45 46 48 46 44 47 47 43 43 45 43 41 46 49 48 48 53 55 51 47 49 59 64 63 64 71 76 78 80 82 83 84 86 84 81 82 83 83 81 81 85 86 80 77 83 90 90 90 96 98 95 93 92 88 81 73 66 62 63
18 20 23 26 28 28 32 46 63 70 66 54 37 26 32 46 50 44 39 38 36 37 38 35 34 40 44 41 42 46 44 37 38 46 45 39 41 44 40 36 42 49 52 54 59 61 58 52 50 57 64 67 72 77 77 75 78 80 79 81 82 75 69 69 73 76 78 80 81 82 80 80 83 85 83 85 92 95 91 85 81 77 70 59 50 49 53
19 21 24 29 31 32 38 52 66 68 57 42 31 27 33 45 47 41 39 40 40 42 45 44 42 42 38 34 37 41 36 33 38 43 39 38 41 40 35 37 45 50 50 51 54 56 57 56 54 58 65 70 72 76 77 76 76 75 73 70 67 65 66 71 74 76 80 82 81 81 81 82 86 90 88 86 87 89 89 86 82 76 68 56 44 41 43
21 26 32 35 34 35 46 60 63 53 41 33 30 28 31 38 40 38 39 43 45 47 49 47 43 40 35 33 38 40 37 38 41 38 34 36 38 36 36 41 45 44 42 47 53 55 56 59 62 66 72 75 74 74 76 76 75 74 72 69 69 72 76 79 79 78 79 82 85 85 83 83 88 92 90 88 86 83 84 85 81 70 61 52 43 38 40
27 37 51 52 40 33 42 53 50 40 35 36 37 38 39 42 42 41 43 47 50 52 52 48 44 41 36 34 36 41 43 44 39 32 30 31 32 32 35 37 39 41 43 47 51 50 48 54 62 67 71 74 73 71 73 74 74 74 71 71 76 81 81 82 84 81 77 80 86 88 85 85 86 84 84 88 89 83 76 71 62 51 46 45 41 38 39
27 41 56 55 39 32 40 47 46 45 46 48 50 51 49 46 44 44 46 49 49 49 48 47 45 44 39 35 36 41 46 44 37 31 29 28 29 33 35 33 34 39 41 43 48 48 44 51 63 65 62 64 68 71 71 69 66 66 70 75 80 80 79 80 82 79 77 79 79 76 79 84 84 80 80 84 86 80 71 63 54 45 39 35 33 34 36
25 40 46 36 26 33 49 55 54 55 56 53 54 55 52 49 46 43 44 47 48 46 46 49 51 50 45 39 39 42 44 41 38 36 32 29 31 37 37 34 37 39 36 38 48 51 48 56 66 66 59 57 59 62 64 60 52 52 63 74 75 70 72 79 80 75 76 80 75 69 75 84 82 77 77 79 75 68 63 58 50 42 36 31 30 33 35
32 44 36 25 30 48 62 63 59 58 57 53 52 54 55 52 47 42 43 49 51 47 48 53 53 51 47 44 43 44 43 40 37 37 33 30 32 35 35 37 41 42 38 41 48 48 47 55 63 63 60 58 55 55 63 66 55 48 57 72 72 64 66 77 82 77 76 78 75 71 76 82 80 78 82 85 80 71 64 57 47 38 35 35 33 32 36
38 39 27 27 43 58 61 57 55 54 53 50 51 54 55 51 46 44 47 52 50 46 50 55 53 48 48 48 46 45 44 40 36 35 33 31 32 32 32 38 44 43 40 43 46 42 42 49 55 57 60 61 56 56 67 74 66 59 65 78 80 73 68 70 74 76 77 80 81 79 76 74 72 71 74 82 86 79 67 56 47 40 40 40 35 30 31
40 32 23 32 46 51 50 50 48 46 45 43 43 47 48 46 46 48 49 49 48 48 53 57 55 51 50 49 46 46 46 42 34 31 30 29 29 30 35 42 45 42 39 42 43 39 39 47 53 55 57 56 53 56 68 76 75 73 74 74 75 77 76 69 68 73 78 78 79 78 73 69 70 68 66 72 82 81 69 58 51 46 42 40 38 33 32
38 26 19 28 39 41 42 39 33 29 30 30 30 35 38 39 43 47 47 47 51 54 55 56 56 54 54 50 45 45 47 44 36 32 32 31 31 37 44 45 42 38 39 42 42 39 40 47 53 55 53 49 48 53 64 73 77 81 83 79 78 82 83 78 76 80 80 77 77 79 76 75 80 81 75 72 78 80 71 60 56 53 47 40 35 32 33
33 24 21 29 35 34 30 24 19 22 28 31 33 38 40 40 42 45 45 48 53 55 54 54 55 54 53 50 45 44 46 45 39 37 37 38 39 44 45 41 37 38 40 41 41 40 41 47 54 56 53 51 49 50 56 64 71 76 80 82 83 85 86 84 83 84 80 77 81 84 79 75 80 86 83 82 88 89 74 54 47 47 45 39 33 29 28
29 25 24 28 29 27 25 24 26 32 36 38 39 42 44 45 46 46 47 51 54 52 51 55 58 54 50 49 48 47 48 46 43 42 43 44 45 44 41 38 39 42 42 40 42 43 43 47 54 55 53 53 53 51 54 63 69 72 76 77 77 79 84 86 85 84 82 80 84 86 79 70 72 78 77 74 80 85 73 52 42 42 41 36 34 34 33
26 25 23 23 24 28 33 38 40 39 38 38 41 44 47 49 50 49 48 50 52 51 51 56 59 53 47 48 51 51 49 47 44 45 47 47 45 42 40 38 39 39 38 40 45 46 44 48 55 55 51 50 49 48 54 65 73 78 84 81 75 76 83 81 74 76 83 85 84 84 77 66 63 70 72 68 71 80 76 58 46 43 39 33 33 39 40
22 23 22 22 26 35 42 44 43 42 41 41 45 49 51 51 53 53 52 52 54 55 55 56 55 51 49 52 54 52 50 48 46 44 45 45 42 40 37 33 31 32 35 40 44 45 45 50 55 52 48 49 48 46 53 67 77 83 86 80 74 80 86 75 64 73 87 86 78 74 67 56 57 69 75 69 63 64 61 50 42 39 36 32 35 42 44
20 21 22 24 29 37 42 42 41 41 40 39 43 51 54 53 53 55 55 55 57 58 56 54 52 52 52 53 53 52 52 51 48 45 44 40 37 35 32 28 31 38 41 42 43 45 46 51 54 51 48 51 52 51 55 65 73 77 76 71 70 77 79 67 61 73 84 78 67 60 53 43 44 55 61 58 51 45 43 42 45 48 47 45 47 50 50
18 22 29 34 37 39 39 38 40 41 39 37 40 48 54 55 55 56 57 58 59 57 52 50 50 51 52 53 53 53 53 51 49 48 46 41 39 38 34 33 40 49 49 44 45 50 51 54 57 57 53 53 54 56 59 64 66 67 67 65 67 72 73 65 62 68 68 58 49 45 41 34 33 35 38 40 40 41 45 55 65 69 66 59 54 54 53
Wind_Speed
10 10 10 11 11 9 8 7 7 8 8 9 11 15 17 13 10 12 14 13 14 15 15 15 17 18 15 8 5 8 7 7 6 5 5 3 3 4 5 6 6 4 4 3 4 7 4 4 4 5 9 7 10 12 10 9 9 9 6 4 8 11 11 15 19 18 18 17 12 9 12 15 12 10 11 15 21 23 20 15 12 13 11 8 6 3 6
10 10 11 11 11 9 8 7 7 8 8 9 13 17 17 10 8 13 15 15 16 17 16 14 13 13 9 6 7 7 8 6 3 2 3 3 3 3 3 4 7 6 4 2 3 6 4 4 6 4 3 2 6 11 12 11 11 10 7 6 4 6 3 5 10 10 8 13 14 10 10 11 3 8 9 3 8 18 18 11 7 8 11 13 8 3 7
10 11 11 11 10 9 8 8 8 8 8 10 15 19 16 7 8 15 15 15 17 17 16 14 11 10 7 6 6 6 7 7 5 6 6 5 4 4 3 3 5 5 5 5 5 3 3 5 5 5 3 2 4 8 10 12 14 13 10 9 5 4 3 2 2 3 4 4 4 3 5 3 3 9 9 8 5 6 9 3 2 4 2 8 9 8 13
11 11 11 11 10 9 8 8 9 9 9 12 16 19 14 7 11 17 15 15 17 13 12 14 12 7 4 5 7 6 6 5 6 10 10 8 6 5 4 5 6 5 3 3 3 3 3 4 4 5 4 1 2 7 7 9 13 15 15 15 9 5 5 1 3 4 7 7 4 4 7 6 5 8 10 13 13 8 3 1 1 3 5 6 7 12 18
11 11 12 11 10 10 9 9 9 9 10 13 17 20 14 8 12 17 15 13 14 12 11 13 12 8 3 5 7 6 7 6 6 7 7 8 8 6 5 6 7 6 4 3 3 4 5 3 5 7 4 5 5 8 9 8 10 12 16 20 14 5 4 5 2 4 8 6 3 2 3 6 6 8 11 13 12 10 6 3 7 6 4 4 6 13 16
11 11 11 11 11 10 9 10 10 10 12 15 19 19 13 8 12 17 14 10 10 10 9 10 9 7 4 5 6 6 7 7 5 4 3 7 7 6 7 9 8 5 3 4 5 6 6 6 6 5 3 7 9 7 6 5 6 10 14 20 16 6 4 7 5 3 4 3 2 3 4 7 8 8 9 9 8 8 4 5 9 8 6 6 10 13 11
12 11 11 11 11 10 10 11 11 12 13 16 20 19 13 9 11 14 13 8 7 8 6 5 6 6 6 6 5 5 7 7 7 3 2 6 6 4 4 6 6 5 4 5 6 5 6 7 7 3 1 0 4 4 2 3 4 6 8 14 15 10 6 6 7 5 3 4 4 3 3 6 8 7 5 6 6 3 1 4 7 8 8 10 14 14 12
12 11 10 10 11 11 12 12 12 13 15 18 21 19 13 11 12 14 12 6 7 10 8 6 6 6 7 7 5 5 7 5 6 7 5 6 7 5 6 6 6 7 8 4 2 5 9 11 9 4 3 5 3 2 1 3 5 4 5 8 10 12 10 7 7 5 2 3 5 3 4 5 4 2 1 2 5 7 6 5 7 11 12 15 18 18 18
12 11 11 11 11 11 12 13 13 14 17 20 22 18 13 14 15 14 11 5 6 8 8 8 8 6 5 6 5 4 6 3 2 6 8 7 6 6 8 9 8 9 10 5 3 2 6 12 13 8 1 4 7 5 3 5 6 4 5 5 6 10 11 8 5 2 2 3 6 8 7 6 4 2 2 3 6 7 8 9 9 11 16 21 22 21 20
13 12 12 11 11 12 13 14 14 16 18 22 22 17 12 14 14 12 10 8 7 5 5 6 7 6 5 5 4 3 5 3 2 1 4 3 4 5 4 5 8 9 11 11 3 5 4 9 14 12 6 3 4 7 4 6 7 4 3 4 6 6 7 6 4 4 6 6 7 8 6 4 2 1 3 6 6 4 7 11 10 9 15 20 20 19 19
14 13 12 12 12 13 14 15 16 17 19 22 21 15 10 12 14 12 10 10 10 6 4 4 5 7 5 6 8 5 4 5 1 1 5 6 7 8 5 3 5 8 12 14 10 7 7 7 9 12 12 8 1 6 7 5 4 4 3 4 5 6 6 6 5 6 7 5 6 7 4 2 3 3 5 8 6 3 6 10 12 11 12 14 16 16 16
15 13 13 13 13 13 14 15 16 17 20 22 20 14 9 11 14 12 10 12 12 7 4 4 6 7 4 6 9 6 5 7 3 2 6 9 9 11 11 6 3 6 9 12 12 13 12 6 2 6 9 6 4 6 8 7 5 6 6 5 5 7 9 9 8 7 7 7 7 4 2 5 7 7 8 10 9 5 5 9 13 13 12 11 12 12 10
14 13 13 13 13 14 15 16 17 18 20 23 20 14 11 13 14 13 12 12 11 7 4 3 2 3 4 5 6 4 5 7 3 5 8 10 10 9 6 4 3 5 8 9 9 12 11 5 2 5 7 7 8 10 10 9 8 9 10 9 8 10 10 10 11 9 8 9 7 4 6 8 8 8 10 11 11 9 7 8 10 13 13 12 10 9 7
13 13 13 13 13 15 17 17 17 18 21 24 19 13 13 16 14 12 11 10 11 8 5 4 4 8 9 6 6 7 7 5 4 7 8 7 7 7 3 3 6 9 11 9 5 4 6 4 4 7 7 6 8 10 11 11 10 10 12 12 12 12 11 12 14 11 9 10 10 10 12 10 6 8 11 12 11 11 11 9 9 11 13 12 10 7 6
13 13 13 14 15 16 18 18 17 18 22 23 18 13 14 16 14 11 10 10 11 8 5 6 7 10 9 5 5 7 8 5 3 3 3 3 0 5 5 5 9 11 10 5 2 3 5 5 4 5 4 4 5 6 8 10 10 9 10 12 12 13 14 15 14 11 12 14 13 10 7 6 7 11 12 13 13 11 11 10 9 10 12 10 8 7 6
13 13 14 15 16 17 19 19 18 19 22 23 18 14 15 17 16 12 9 10 11 8 5 6 5 6 6 2 3 4 5 4 1 2 2 3 3 1 4 7 10 8 5 7 5 3 6 5 5 4 4 4 4 3 3 6 6 6 8 9 10 11 12 14 13 10 12 14 11 5 3 5 10 12 11 14 15 13 11 8 6 9 10 8 7 7 8
13 14 15 15 17 18 19 20 19 19 22 22 18 15 16 18 16 12 10 9 9 6 4 7 6 6 6 3 2 6 6 3 3 4 1 2 3 2 6 7 9 7 3 9 6 5 6 6 5 5 4 5 4 3 3 3 4 6 6 6 7 7 8 10 11 10 13 14 11 6 4 7 11 11 11 13 16 15 12 6 4 9 10 8 7 9 10
14 15 16 16 16 17 19 20 19 20 22 22 18 17 18 18 15 13 11 10 8 2 4 7 8 9 7 3 2 5 6 3 5 5 1 3 6 3 3 6 8 6 3 7 4 5 8 8 6 5 5 5 4 4 2 1 3 5 3 2 6 9 9 8 10 9 10 12 12 9 7 10 13 13 12 14 15 13 9 5 6 10 11 9 8 7 8
15 16 17 17 16 17 18 19 19 20 21 20 18 17 19 19 16 13 11 9 7 3 1 5 7 6 8 9 7 6 7 7 7 6 4 7 10 6 1 6 6 3 3 5 3 5 8 9 7 6 6 5 4 5 5 3 3 4 3 6 10 10 8 8 11 11 9 12 15 12 8 9 14 14 13 13 13 11 9 9 9 9 9 10 9 8 8
17 18 18 17 17 17 18 18 19 19 19 19 17 16 17 19 17 14 11 9 7 6 7 10 7 5 8 12 12 9 9 11 12 8 6 10 11 7 4 5 6 3 1 3 4 4 5 7 8 6 6 7 9 11 11 10 7 5 5 10 12 10 9 11 13 14 13 13 13 9 5 8 12 13 12 10 11 12 12 10 8 7 6 6 6 6 7
19 20 19 19 18 18 19 18 19 18 18 18 17 15 17 20 18 14 13 11 8 6 7 8 5 2 5 11 12 10 8 9 9 6 4 7 7 4 3 3 3 1 1 2 5 5 4 6 8 7 7 10 12 13 14 14 13 8 6 10 10 9 10 12 13 13 12 10 9 7 7 10 11 11 11 12 12 12 10 8 8 7 6 5 4 2 3
21 21 20 20 19 19 19 19 19 18 18 18 17 17 19 21 19 16 13 10 7 5 5 6 5 5 5 7 9 8 6 7 7 6 5 5 4 4 4 4 7 6 4 2 4 5 6 9 11 11 11 12 13 13 12 13 13 9 6 8 10 9 7 9 12 14 14 14 13 13 14 14 12 11 13 13 11 10 9 10 9 7 6 6 5 3 1
22 22 21 20 19 18 18 18 18 18 18 18 17 19 22 22 19 14 10 7 8 9 9 9 8 8 8 6 6 8 9 9 10 10 8 5 7 9 8 10 14 11 8 8 4 6 10 13 15 15 13 13 15 15 14 14 14 12 12 16 18 16 12 12 16 19 20 19 17 16 16 16 14 13 13 11 10 9 7 6 6 5 5 5 4 2 1
23 22 21 20 18 17 17 18 18 18 19 18 18 21 24 21 16 13 11 11 11 11 11 10 10 10 10 10 10 11 11 11 11 10 8 6 9 12 11 12 14 12 13 15 10 10 17 19 19 19 19 18 18 19 19 19 17 15 17 19 18 16 14 14 18 19 17 17 16 15 17 17 15 13 13 11 9 8 5 4 4 4 4 3 2 2 2
23 22 21 19 17 17 18 18 19 20 19 19 20 23 23 20 16 14 14 12 9 9 10 12 13 12 10 10 11 12 13 12 11 10 9 8 10 13 13 12 12 13 15 18 15 14 19 21 21 22 23 21 20 20 20 18 16 14 15 16 13 11 10 12 17 20 19 18 17 16 17 18 15 15 15 13 11 10 8 8 7 6 6 6 4 2 1
23 21 20 19 19 19 20 20 21 20 18 18 21 23 22 20 18 15 13 11 10 11 13 15 15 12 10 10 10 11 12 12 11 12 13 12 12 13 13 13 15 16 16 16 14 14 19 23 23 24 23 22 22 23 22 20 17 15 15 15 11 11 14 16 20 23 23 21 18 15 17 19 18 17 17 16 14 13 12 11 11 10 9 9 8 6 5
21 20 20 20 20 21 22 21 21 20 18 20 23 25 24 22 19 15 13 14 14 15 16 16 14 12 11 11 10 9 9 10 11 12 12 12 11 12 11 12 16 16 14 14 14 15 20 23 22 22 22 21 22 24 23 21 19 19 18 14 9 11 17 19 20 22 21 19 15 11 12 18 20 17 17 18 16 14 14 13 13 12 12 11 9 7 7
20 19 19 19 20 22 23 22 20 20 21 24 26 27 25 23 19 17 16 15 16 15 15 15 14 12 12 11 10 9 8 8 10 11 11 11 11 11 11 12 14 16 18 20 21 20 22 22 20 19 17 16 19 22 22 21 22 22 20 15 10 10 12 13 15 18 17 14 11 9 10 17 21 19 18 18 16 15 15 14 13 13 13 12 10 8 8
19 19 19 18 19 21 23 22 21 22 24 24 24 24 23 22 21 19 16 16 16 16 15 15 16 16 15 13 13 14 13 12 12 12 12 11 11 13 13 13 14 17 18 20 21 22 22 21 19 17 12 11 17 21 20 22 27 24 17 13 11 9 10 9 10 14 15 13 11 11 11 15 19 17 17 17 16 14 14 14 14 13 12 11 9 7 6
19 18 18 18 19 21 22 23 23 23 22 21 21 23 23 22 22 21 18 17 17 15 13 15 18 19 17 14 14 16 17 16 16 16 15 13 12 13 13 12 13 15 15 17 20 23 23 20 17 14 10 9 14 20 21 25 29 23 14 11 10 9 10 9 6 9 13 15 14 13 13 15 17 16 16 15 13 11 11 12 12 11 9 8 7 6 6
17 17 17 17 18 20 22 24 24 22 20 21 24 25 24 22 22 21 19 17 15 13 12 15 18 19 18 15 12 13 15 16 17 19 18 17 16 16 16 16 17 17 18 19 20 20 20 18 17 15 11 7 11 19 22 25 26 20 11 9 10 11 13 13 10 10 13 14 15 16 17 17 16 15 15 15 13 12 12 12 13 12 11 10 10 9 8
17 17 16 16 18 21 23 24 23 21 22 24 24 23 23 23 22 21 19 16 14 12 12 15 19 20 19 16 13 13 13 12 14 17 17 16 15 15 14 15 15 14 14 16 18 18 17 16 16 16 13 9 13 21 24 24 25 19 12 11 14 14 15 18 18 16 15 14 13 16 20 20 18 17 17 17 17 16 15 15 16 16 15 14 13 12 12
16 16 16 16 17 20 23 24 23 23 24 23 21 21 23 24 22 20 19 16 14 13 10 13 18 20 20 18 17 16 15 12 12 16 16 15 15 15 14 13 13 12 11 12 15 16 15 13 14 15 13 10 15 23 27 25 22 17 14 15 17 16 16 18 18 16 14 12 11 15 19 20 19 18 19 19 18 17 16 18 18 17 16 16 15 15 14
16 15 15 16 17 20 23 24 24 23 22 20 20 22 25 24 22 21 19 17 16 13 9 11 17 20 20 20 18 16 15 13 11 14 17 16 15 16 16 15 14 14 14 14 14 15 13 12 13 15 15 13 15 21 25 22 17 16 17 17 16 17 18 17 15 12 10 9 11 15 17 17 18 19 20 19 18 18 19 19 18 15 15 16 16 16 16
16 15 15 15 17 20 23 24 22 20 19 19 21 23 25 24 22 21 19 18 17 14 9 12 18 22 22 20 17 15 16 15 12 14 16 15 13 14 16 17 16 15 15 15 15 16 15 14 15 17 17 15 15 18 20 19 17 18 18 16 15 16 18 17 15 13 12 12 14 14 14 14 18 20 19 17 16 16 17 14 10 9 10 11 13 14 15
16 15 15 15 17 20 22 22 19 17 17 19 20 21 24 25 22 20 18 18 18 16 13 13 16 17 18 17 16 15 15 13 11 11 12 12 11 13 15 16 16 15 13 13 14 14 14 13 15 16 16 16 17 19 19 19 20 19 16 14 13 12 13 14 14 14 14 15 14 11 10 13 15 15 13 11 12 11 9 5 3 4 6 8 9 11 12
16 15 15 15 17 20 22 20 16 14 16 19 20 21 24 24 20 17 16 17 18 18 17 15 12 10 10 13 15 15 15 13 11 11 11 11 11 12 12 13 15 14 13 12 11 10 9 11 13 15 16 17 18 19 18 17 17 16 15 14 11 8 9 12 14 14 15 15 12 10 10 12 13 11 9 9 10 8 4 2 2 4 5 7 10 11 11
16 15 15 15 17 20 20 18 15 14 17 19 20 22 24 22 17 15 17 18 18 17 15 14 11 8 7 11 15 15 15 14 12 12 12 12 11 12 13 13 14 13 12 12 11 11 12 13 14 15 16 16 15 15 14 13 12 12 11 11 9 7 9 12 13 13 13 11 10 10 9 10 11 10 7 6 6 6 4 3 3 3 5 7 10 11 11
16 16 15 15 16 17 16 15 16 17 18 20 21 22 22 20 16 16 19 19 17 14 12 12 11 7 7 11 16 16 16 13 10 10 13 13 12 14 14 12 11 11 12 12 11 10 14 17 17 17 17 14 12 13 14 14 13 12 10 10 10 10 11 13 12 12 11 10 9 8 7 7 9 9 6 3 4 4 3 3 2 1 3 6 8 10 11
19 18 16 14 14 14 14 16 20 21 20 21 21 20 20 17 15 17 19 18 15 13 12 12 11 9 8 12 16 17 16 12 9 10 13 13 12 13 13 10 9 11 12 11 9 8 12 16 18 19 19 16 13 14 16 17 16 14 11 11 12 11 10 11 10 10 11 11 11 9 7 6 6 7 6 5 3 2 2 3 3 3 4 5 6 8 8
19 18 15 15 15 16 17 21 23 22 21 21 20 18 17 14 13 16 19 16 12 12 13 11 11 10 9 12 16 16 14 11 10 10 11 11 11 12 11 10 11 11 11 10 9 7 9 13 17 19 19 17 16 17 17 16 16 15 13 14 16 13 9 8 8 8 9 9 9 9 9 6 5 6 7 6 5 2 1 3 3 4 4 4 5 6 6
17 16 15 15 18 21 23 24 22 20 19 19 17 16 15 13 11 15 17 12 9 12 14 11 11 12 11 12 15 16 14 13 12 12 12 13 12 11 11 12 12 10 9 11 11 8 9 13 16 16 15 14 16 19 18 15 14 17 19 20 19 16 10 7 8 9 9 6 4 6 8 7 5 4 6 4 3 2 1 2 2 2 2 3 5 7 6
16 15 15 17 22 25 24 21 19 16 15 15 16 15 14 13 12 15 15 10 9 13 15 11 10 12 13 13 14 15 14 13 11 10 12 14 12 10 11 12 10 8 10 13 12 9 10 13 14 13 11 9 10 13 14 12 11 16 19 18 15 14 14 13 11 9 7 6 4 5 8 7 5 5 6 4 1 0 1 1 1 2 3 3 5 7 7
15 16 18 21 24 24 20 16 15 14 12 15 19 18 15 15 18 17 13 9 10 15 15 10 8 11 15 16 15 14 14 13 10 10 12 13 12 10 12 12 10 10 13 14 12 9 9 10 11 11 11 9 8 8 9 9 10 15 18 17 12 11 16 19 17 14 11 8 6 5 5 5 5 6 7 6 3 1 0 1 1 2 3 3 4 6 6
16 17 20 22 23 20 14 12 14 14 13 16 20 18 15 17 20 18 11 7 11 16 15 11 10 13 16 14 12 12 14 14 11 10 11 12 11 10 9 9 10 13 13 11 9 9 10 11 11 12 11 10 9 8 8 9 9 11 14 15 14 12 12 15 17 16 13 11 9 7 5 3 3 4 5 6 4 2 2 1 0 2 3 3 3 4 4
17 17 19 20 20 16 12 11 13 13 12 14 16 15 14 14 15 14 9 7 12 14 13 11 13 15 13 10 9 11 14 13 10 9 11 11 11 11 9 9 10 13 12 10 10 11 12 13 13 13 12 10 8 8 9 10 11 11 11 12 14 13 11 10 12 12 10 10 10 8 5 5 4 2 1 3 3 2 3 2 1 1 1 2 3 4 4
18 16 16 17 15 13 12 12 12 13 15 15 15 15 14 10 9 9 9 9 11 12 12 12 14 14 11 9 10 11 11 10 10 11 12 11 11 12 11 11 11 12 12 12 12 13 13 13 14 15 14 11 8 8 9 9 11 13 14 14 14 16 14 12 11 10 10 11 10 8 7 8 8 6 5 5 3 4 5 4 3 2 1 2 4 3 3
18 17 16 14 12 11 13 15 15 16 16 13 9 10 10 9 8 10 12 12 12 13 15 15 14 12 9 9 10 11 11 12 12 13 12 11 12 13 12 11 12 13 13 13 12 12 13 15 17 16 13 10 8 10 10 9 9 11 12 11 13 17 18 17 15 13 12 13 12 10 9 8 8 8 7 7 7 7 7 5 3 2 1 3 4 3 2
19 17 16 14 13 14 16 16 13 10 9 7 5 7 12 12 11 12 13 13 12 14 15 14 12 10 10 11 10 10 10 10 12 14 12 11 12 12 12 12 13 14 14 15 13 12 12 15 17 16 13 10 9 10 10 9 9 9 8 9 10 14 15 16 16 14 13 12 12 10 8 6 7 6 5 4 5 6 6 5 3 3 3 4 3 3 2
19 17 16 16 15 16 16 14 9 6 6 8 10 12 12 11 11 14 15 14 14 15 13 10 10 11 12 11 10 9 8 8 11 13 12 9 10 11 12 12 13 12 13 14 14 11 12 16 18 17 14 11 10 9 9 11 12 11 10 9 10 12 12 12 13 14 13 11 10 8 7 7 7 7 6 6 5 4 5 5 4 4 4 4 2 2 3
19 17 17 17 17 15 13 12 9 7 7 9 14 14 11 10 12 15 16 16 17 15 12 10 11 13 13 10 8 8 8 8 9 11 10 9 9 9 10 10 11 10 11 13 11 9 11 17 19 17 14 12 11 10 10 11 13 14 12 9 10 11 11 12 13 14 12 11 9 8 7 7 6 5 6 6 3 2 3 3 3 3 4 3 2 1 3
19 17 17 17 15 12 10 10 9 6 7 9 15 16 13 13 15 14 14 15 16 14 11 10 11 13 14 12 9 9 9 8 7 8 9 8 7 6 8 11 12 11 12 12 10 9 12 16 17 15 13 13 12 12 12 12 13 13 11 8 9 10 11 11 12 11 9 9 9 9 7 6 5 5 5 5 4 3 2 1 2 4 5 5 3 3 5
Wind_Direction
224 224 228 229 233 238 242 246 242 235 226 200 185 179 173 168 165 160 159 163 171 180 184 187 198 201 193 194 256 273 273 287 283 280 311 307 185 190 224 263 282 308 356 23 14 2 354 331 328 187 192 230 241 248 262 267 258 232 215 202 191 195 199 210 225 236 244 252 248 228 226 224 229 265 268 234 224 230 237 251 239 202 189 176 133 107 171
220 221 225 229 234 236 236 241 236 228 218 196 184 177 175 180 171 157 159 166 172 177 175 180 201 206 212 247 253 241 238 245 257 270 276 253 227 243 242 250 259 272 307 304 316 343 333 316 358 71 133 246 249 257 262 263 260 240 248 283 213 185 174 186 206 214 226 241 245 252 242 219 221 356 348 304 214 211 218 240 238 197 194 194 172 127 172
217 219 223 228 231 233 234 237 233 227 213 193 183 179 178 180 162 159 165 169 171 174 169 171 197 211 218 236 235 233 228 221 227 221 205 193 205 222 217 220 229 246 283 283 270 293 308 303 341 35 23 304 278 282 274 265 259 244 255 282 264 244 287 36 101 150 150 191 224 317 322 258 318 347 350 358 350 220 209 200 61 52 108 167 151 135 155
215 216 222 227 229 231 232 231 231 226 209 192 184 181 180 177 164 163 168 169 169 174 173 173 183 182 184 227 232 232 220 223 249 231 204 182 181 195 221 230 221 217 252 274 254 248 279 291 295 320 338 345 273 282 271 262 257 247 246 250 250 269 270 289 45 99 113 109 111 48 11 2 337 322 332 350 355 349 334 175 131 58 76 95 121 149 158
213 214 217 224 228 230 227 227 229 222 206 193 184 181 183 188 171 165 167 171 175 180 175 171 170 149 139 230 227 215 211 218 246 252 226 189 186 203 212 209 219 229 232 240 254 245 232 243 290 294 273 171 192 251 256 253 268 267 251 243 246 261 238 228 229 108 108 110 148 200 331 349 341 320 329 341 346 352 9 126 157 166 148 97 126 159 165
212 211 213 219 224 225 223 223 224 216 205 193 184 181 183 176 158 157 164 172 181 187 177 174 177 151 145 228 227 199 201 209 219 266 240 182 192 230 210 188 195 208 216 235 252 251 233 247 289 292 204 182 198 228 248 243 270 280 250 234 233 232 218 219 212 149 124 160 219 270 282 300 311 319 341 356 350 344 6 134 149 167 194 189 170 173 179
213 211 212 215 219 220 218 220 219 211 201 190 183 180 176 157 137 147 165 170 167 179 182 185 191 171 179 226 234 189 192 203 196 192 186 178 189 237 220 193 197 209 227 243 252 250 223 229 263 280 65 137 198 194 224 206 227 267 239 220 224 228 231 233 227 222 207 210 252 308 272 255 275 298 343 18 24 24 93 151 162 172 184 188 182 181 183
214 213 213 214 216 216 216 219 216 206 197 186 181 180 170 144 131 146 164 163 146 162 172 178 190 193 191 201 204 181 182 187 177 174 190 196 178 179 202 199 194 208 218 226 260 244 222 221 240 257 14 1 312 246 242 204 206 236 224 210 222 228 225 226 226 226 237 238 232 203 168 197 221 236 269 46 82 113 132 144 167 176 180 184 186 186 186
217 216 215 214 214 213 215 218 212 202 194 184 181 184 168 144 141 148 154 135 123 149 163 167 178 187 180 183 191 173 161 156 170 180 194 210 188 180 209 221 220 210 199 185 75 105 214 229 235 234 283 353 316 301 257 222 216 216 217 212 218 223 219 217 224 205 123 152 185 180 180 196 200 188 177 127 108 125 140 141 152 175 185 187 188 192 197
219 216 214 214 212 212 214 214 207 199 191 181 181 186 171 146 141 138 135 127 119 144 167 156 166 180 173 173 169 122 144 183 321 153 175 208 199 181 192 234 248 232 209 215 207 110 153 239 239 225 187 127 321 313 287 235 216 192 211 219 206 209 207 206 218 191 161 168 187 192 193 198 213 227 129 122 122 143 154 147 143 160 181 185 187 199 211
215 211 212 212 210 209 210 208 202 194 186 180 179 183 169 147 143 136 128 123 119 139 173 151 170 192 189 175 169 148 163 184 170 88 151 152 176 199 199 204 266 257 226 225 221 182 195 246 241 215 189 160 191 302 297 271 211 180 208 219 204 202 194 191 196 183 175 185 195 198 192 154 174 186 152 140 144 175 185 172 163 162 175 190 198 210 221
208 205 207 209 207 206 205 201 195 188 182 177 177 181 168 147 147 143 131 122 120 132 165 180 203 211 195 167 165 157 182 190 198 263 199 179 192 215 214 201 254 281 247 231 226 218 224 251 276 211 202 188 205 250 263 256 209 195 210 216 219 210 194 191 194 181 166 163 165 170 144 144 167 175 166 158 150 152 188 193 185 180 179 194 212 223 231
199 199 204 206 205 202 198 194 188 182 179 176 177 178 161 147 146 142 131 120 112 115 157 203 221 174 140 146 158 169 203 200 217 269 249 234 226 222 228 241 262 281 267 255 247 237 232 236 226 207 208 216 217 216 226 227 211 203 201 195 209 220 210 198 193 180 167 166 165 153 138 144 162 169 165 167 166 169 186 196 200 198 191 194 212 228 238
194 197 202 203 202 197 192 188 182 177 176 176 178 173 156 151 150 141 127 110 97 105 149 168 147 160 171 180 187 195 199 202 241 265 269 259 216 178 161 258 250 255 265 268 268 242 214 192 191 196 195 214 222 218 225 229 223 219 211 197 199 212 212 200 192 186 175 153 128 127 140 143 159 173 169 171 177 190 203 203 209 216 211 208 217 232 240
191 195 199 199 197 193 186 181 177 175 175 175 175 166 156 156 154 141 125 107 94 104 154 169 159 167 178 201 220 205 194 197 240 263 271 307 6 142 165 234 264 270 262 238 158 168 200 191 179 184 181 190 210 222 234 234 233 233 223 206 202 208 207 199 195 191 175 149 125 128 152 158 173 179 173 172 175 185 197 196 200 215 221 220 219 228 224
191 193 196 194 191 187 183 178 174 173 174 175 173 164 157 156 152 140 122 100 84 88 147 185 175 144 127 140 227 186 165 182 186 134 218 292 353 36 231 272 307 305 234 174 155 204 226 204 170 168 176 183 195 207 215 219 223 220 213 213 216 215 207 198 195 191 175 157 137 131 158 166 180 183 175 175 175 170 170 176 185 200 210 211 206 207 201
190 190 190 187 184 182 179 177 173 171 173 175 172 163 158 157 150 133 115 103 93 98 178 197 187 161 141 128 184 171 164 183 183 168 175 26 86 190 251 289 330 340 158 157 169 214 212 188 173 179 185 183 185 178 172 183 184 183 199 227 219 188 171 179 184 183 178 161 133 107 118 149 169 174 165 169 172 164 161 173 192 193 198 204 204 202 198
186 185 181 177 176 176 176 176 174 171 172 173 171 164 162 160 150 132 121 119 118 135 244 208 178 172 171 153 146 175 171 155 162 173 153 94 123 138 280 295 325 350 134 162 189 208 193 180 176 185 191 191 185 172 169 204 187 166 148 169 165 141 132 158 163 154 166 158 128 109 119 140 154 161 158 162 166 163 162 170 175 183 192 199 203 206 204
180 177 172 169 168 168 171 173 171 170 172 172 169 166 166 163 152 140 136 133 129 110 84 154 166 191 203 193 174 163 172 177 180 187 180 157 149 134 218 269 307 358 146 176 200 206 198 189 182 186 192 189 165 138 110 91 165 171 138 147 151 129 112 137 138 124 136 143 126 112 109 130 147 155 155 157 159 156 155 159 159 166 178 184 192 204 210
175 171 166 163 162 161 162 164 165 168 171 172 169 165 166 165 156 149 151 148 142 138 134 145 166 218 215 193 177 167 180 188 184 181 174 168 164 159 192 247 299 338 152 186 184 186 191 183 178 182 181 170 155 136 113 99 109 131 149 157 153 134 123 130 126 122 127 126 119 111 108 130 144 152 154 158 158 151 146 144 133 125 132 150 170 190 201
171 168 163 160 159 157 155 157 161 164 167 172 172 167 164 163 158 162 172 163 150 165 176 169 176 228 195 187 186 180 177 177 171 165 175 185 183 171 180 240 303 330 164 180 172 164 157 170 166 146 138 147 144 133 119 104 97 100 133 150 139 127 138 140 130 129 132 121 113 120 123 123 132 142 144 147 148 139 121 97 94 105 108 113 129 161 203
170 167 164 161 159 157 156 158 161 164 168 172 173 168 163 160 162 172 178 164 144 139 133 113 79 67 116 170 188 182 162 154 145 121 120 161 146 89 86 72 64 84 101 107 154 171 177 173 157 137 138 143 134 126 121 113 105 98 108 124 110 100 128 148 136 128 125 116 114 121 119 116 117 120 122 125 126 118 96 80 85 97 93 93 105 104 125
170 168 165 163 162 161 160 163 165 168 171 169 168 165 159 156 164 178 176 154 141 123 102 93 84 76 80 101 139 150 146 142 130 111 104 117 97 82 81 74 72 79 77 61 80 166 155 137 125 122 128 131 125 122 119 115 115 112 106 105 102 100 114 129 125 117 111 105 108 117 119 117 116 112 107 106 106 107 103 93 92 97 97 101 114 118 110
170 170 167 166 165 162 161 163 165 166 165 161 160 163 160 158 167 173 154 139 138 127 112 111 105 83 71 78 99 118 126 126 123 114 103 96 92 90 90 86 84 84 76 69 83 135 133 121 115 112 109 108 110 109 104 102 104 105 105 105 105 108 117 122 119 115 108 103 108 117 119 117 119 119 116 114 111 107 104 96 90 96 105 109 130 158 158
171 172 169 167 165 160 158 159 159 157 157 156 159 163 163 162 162 151 132 124 128 129 122 114 101 84 74 79 93 112 123 124 123 113 96 88 98 100 96 92 91 90 84 82 91 112 116 112 111 108 104 103 103 97 95 99 101 96 93 93 99 113 125 125 119 113 109 107 111 116 118 117 120 123 123 121 118 117 114 107 100 96 94 86 79 87 112
171 172 170 166 162 158 155 155 156 154 152 154 160 162 159 152 144 134 127 124 124 121 111 101 95 93 94 91 95 111 122 123 118 105 93 89 96 99 95 94 97 100 102 102 105 112 111 109 109 107 104 106 108 103 102 107 107 97 84 77 87 117 125 125 120 113 106 105 106 108 114 118 119 121 121 118 118 119 117 113 108 105 99 89 78 69 58
168 170 167 164 161 159 158 158 157 155 151 152 156 156 149 141 135 135 136 131 124 118 111 105 103 105 104 102 102 111 122 125 121 113 106 101 99 98 102 109 112 116 121 119 115 114 111 109 109 109 111 118 118 112 112 114 108 96 89 85 94 117 121 124 124 117 109 106 105 108 117 117 115 115 114 113 114 115 111 109 107 105 99 94 88 82 74
162 163 161 160 161 162 161 161 160 158 157 157 157 153 146 142 143 144 141 133 128 128 126 122 116 107 103 102 100 99 106 111 112 117 122 122 119 117 121 125 126 124 121 116 112 110 107 106 107 109 122 136 126 114 116 117 103 90 91 98 102 106 113 127 130 121 116 115 118 132 135 120 113 111 108 105 105 103 100 98 95 92 91 90 89 87 85
155 155 154 155 158 161 162 162 161 162 162 161 160 154 149 146 145 142 137 135 135 136 134 127 116 104 98 95 93 93 91 89 93 103 112 121 133 138 138 137 134 132 129 126 122 115 109 107 107 107 118 139 131 123 120 109 96 90 94 103 104 102 110 127 132 125 125 129 135 147 144 123 112 109 104 100 97 93 92 91 88 86 87 87 83 79 77
150 150 150 151 153 158 161 159 158 160 162 161 158 155 151 148 144 140 140 141 140 141 142 134 122 112 105 103 107 114 115 112 109 106 103 107 120 130 134 135 134 136 136 130 123 118 114 113 115 116 121 135 133 129 120 104 97 95 96 99 102 108 114 117 118 120 124 128 132 135 126 111 107 107 104 102 101 100 98 95 92 89 87 81 71 58 48
146 146 147 148 151 154 156 156 157 160 159 157 156 154 151 149 147 144 143 145 144 146 148 138 127 119 111 103 104 114 121 124 124 119 112 110 113 116 121 126 129 131 129 122 119 120 119 119 124 131 137 142 128 122 116 107 103 103 101 98 101 105 108 105 95 90 99 109 117 116 105 96 96 99 99 99 101 103 104 103 102 99 91 80 71 63 56
144 144 143 145 150 153 155 155 156 157 155 155 158 156 150 151 152 148 147 148 142 137 142 142 133 123 115 111 109 106 105 114 124 121 113 109 111 114 117 120 123 126 128 125 123 122 122 124 129 128 126 128 123 114 107 104 107 110 109 102 97 94 94 92 85 78 77 81 95 107 104 99 98 98 96 95 96 97 100 104 105 101 94 83 73 67 62
142 142 141 143 148 153 156 156 156 155 155 157 161 157 151 153 155 150 146 141 124 110 123 141 137 128 122 121 119 112 102 101 114 116 110 106 109 110 107 107 110 111 113 118 120 118 118 123 124 118 117 129 127 114 105 105 110 113 108 100 95 91 87 83 80 78 73 65 73 94 102 103 102 97 90 86 84 82 82 83 81 76 72 68 62 55 51
141 140 140 141 146 151 155 155 154 156 157 158 159 155 154 157 156 149 144 136 120 112 124 140 137 131 125 119 119 118 113 110 115 116 110 105 105 105 103 103 102 97 94 99 104 103 103 104 103 104 114 129 126 114 111 113 115 112 109 107 104 103 102 99 100 103 99 82 79 85 89 90 87 80 74 70 67 62 60 60 58 51 47 50 52 47 42
139 138 137 139 143 150 154 154 153 155 159 159 159 157 156 157 156 152 147 139 126 120 129 140 139 134 124 119 123 123 115 112 115 113 106 101 98 101 103 102 96 90 88 87 84 83 87 91 90 92 102 112 112 110 114 118 112 105 107 111 112 116 121 123 124 122 113 100 91 82 74 73 75 73 70 67 63 61 59 56 50 38 31 35 43 46 41
137 136 137 138 141 148 153 154 154 156 158 158 159 159 159 158 157 155 151 141 129 122 124 132 136 132 126 130 136 129 120 123 128 121 117 118 118 120 121 113 103 102 101 90 78 78 87 96 98 96 95 97 96 98 105 112 112 111 115 121 124 129 134 135 133 128 119 113 110 101 90 89 90 89 89 88 82 77 74 67 51 42 36 35 45 51 46
135 135 136 136 140 148 153 152 152 155 156 155 155 157 158 156 154 153 151 142 132 128 127 131 140 142 139 145 145 134 127 135 133 122 126 134 129 128 131 121 114 119 121 110 106 113 119 118 118 114 107 103 103 105 110 118 126 135 142 144 145 145 135 128 128 124 117 115 115 112 106 104 104 106 111 115 114 116 117 98 61 54 48 48 54 57 51
134 133 133 134 140 147 149 147 144 147 149 149 149 154 158 158 153 151 152 146 136 130 126 130 148 168 166 154 147 135 130 137 140 136 140 141 130 126 129 125 124 129 127 120 127 140 137 128 122 117 113 112 116 123 131 140 148 152 146 134 125 116 110 108 105 103 102 99 98 103 105 101 102 107 109 107 116 128 130 105 79 57 46 48 53 56 55
133 132 132 136 142 144 145 145 143 140 142 143 145 151 157 157 152 152 153 148 138 129 117 118 138 172 184 162 152 142 137 145 161 161 152 147 140 138 140 140 140 137 127 124 134 143 138 133 126 120 121 127 131 137 145 150 150 145 132 114 101 98 103 108 108 111 114 111 105 108 113 111 117 128 131 109 103 117 119 115 110 77 66 58 51 54 57
142 142 140 139 138 137 142 145 140 135 135 137 137 141 147 148 149 154 153 143 132 126 121 127 149 177 189 171 159 150 145 153 169 168 160 157 152 148 150 153 148 137 131 135 148 153 145 143 139 135 139 148 151 149 150 151 151 152 149 135 126 126 133 142 149 153 151 148 147 151 154 150 150 155 151 136 130 131 122 123 115 96 91 78 56 54 59
152 150 146 140 134 133 138 140 137 135 137 136 132 136 141 140 144 154 151 139 126 125 128 139 159 170 173 171 166 158 153 157 164 167 169 164 152 151 158 155 144 140 145 155 163 162 152 153 155 156 158 164 168 167 167 165 159 157 152 144 144 152 162 165 163 160 155 154 159 161 160 162 169 164 157 163 183 202 148 123 111 96 91 78 65 67 66
157 149 141 136 132 132 136 138 138 139 141 139 139 146 148 141 149 161 157 143 129 134 137 148 167 168 165 172 174 168 163 163 166 174 178 168 155 158 165 154 143 149 161 161 163 166 158 158 166 175 178 182 184 186 191 192 178 165 159 158 162 167 164 138 119 128 143 160 170 151 150 164 177 151 136 153 188 199 133 126 115 103 102 82 74 81 79
156 145 136 133 133 135 139 143 146 148 151 152 155 158 156 153 164 172 167 155 149 156 159 167 179 175 169 172 176 177 177 175 171 173 176 173 167 166 164 154 150 160 163 158 161 174 178 178 186 193 192 193 195 194 194 190 170 154 152 157 169 173 162 144 130 137 170 212 226 163 158 177 187 152 123 118 134 172 144 152 102 84 94 80 72 81 84
155 145 138 137 142 146 148 152 157 160 163 166 165 162 161 164 166 167 165 161 165 170 172 171 176 179 176 172 175 182 185 182 177 170 171 176 174 165 162 164 165 160 157 159 168 183 193 201 206 200 190 192 201 196 183 172 153 140 142 150 165 168 158 153 154 162 182 204 207 182 181 193 184 161 150 149 162 264 313 133 105 83 85 70 56 70 82
159 152 147 146 151 155 153 156 164 168 168 172 172 170 168 168 162 154 148 156 168 172 172 166 170 183 183 177 178 188 189 188 189 183 175 175 169 158 163 181 178 162 158 166 179 187 190 192 190 186 185 192 202 203 189 171 152 141 146 155 159 155 151 154 157 164 178 192 195 192 192 171 134 132 145 154 169 219 249 215 51 48 61 49 28 38 51
166 162 157 154 157 160 156 156 164 163 155 157 160 154 148 150 147 138 135 156 168 170 170 166 171 186 191 178 169 178 183 186 191 182 168 165 164 161 166 180 177 167 166 173 181 190 197 192 181 179 187 199 213 219 206 180 160 156 160 158 151 148 149 150 150 156 168 177 178 180 173 148 138 147 141 129 142 229 248 235 240 314 8 360 1 16 24
171 166 161 158 159 160 153 146 144 139 132 129 127 121 121 131 141 141 146 156 158 162 170 172 176 188 190 167 153 162 169 169 168 165 164 171 176 172 168 170 172 175 180 183 187 197 201 190 179 184 196 212 230 232 216 191 171 171 175 172 163 162 165 163 163 169 167 156 158 181 195 180 176 193 193 163 173 243 260 247 214 191 211 322 331 349 11
173 165 162 161 157 148 136 129 125 125 124 115 96 96 117 142 164 164 162 164 165 169 173 175 177 179 169 151 154 168 172 167 165 167 173 183 186 179 173 172 179 185 186 186 195 207 204 189 188 198 210 224 238 233 222 206 182 173 179 184 177 170 169 171 174 175 166 155 164 192 210 196 184 193 194 182 191 224 249 256 229 198 255 311 312 318 2
178 169 161 154 144 135 127 119 115 121 123 108 98 130 148 158 166 166 167 172 177 176 176 179 182 176 160 153 166 183 186 183 183 185 186 190 192 191 189 186 189 192 189 185 196 215 209 192 193 207 217 222 231 230 219 205 192 189 201 207 187 171 173 179 178 169 161 163 174 191 202 187 170 169 177 185 199 221 241 252 244 233 253 278 295 311 336
180 172 159 147 139 136 129 119 118 142 149 136 141 156 166 169 167 164 166 171 176 179 180 179 175 168 162 165 179 196 201 197 196 198 200 200 198 200 201 196 194 197 193 187 194 213 211 197 200 212 220 222 228 228 211 197 198 206 215 210 186 172 175 178 164 152 156 172 182 185 185 175 158 154 170 187 197 222 250 260 260 249 244 241 247 311 331
183 172 155 142 137 138 134 126 133 166 182 160 150 153 163 173 169 165 166 173 180 184 181 168 162 168 174 174 175 184 190 191 195 204 208 202 193 195 196 184 176 182 190 190 194 206 205 199 204 216 224 225 228 228 218 210 209 211 213 205 186 177 176 167 154 153 164 179 184 183 185 182 171 168 179 186 194 277 287 274 267 265 257 244 224 259 295
179 164 147 135 133 138 137 130 137 183 213 176 149 145 156 171 171 166 170 179 183 180 172 165 172 186 191 186 177 178 179 173 179 191 187 170 161 166 161 154 160 178 192 195 194 195 195 196 203 213 223 229 228 225 224 225 222 216 210 198 181 175 171 162 158 161 167 170 176 184 189 185 177 177 181 192 213 246 284 345 340 307 286 273 261 257 266